{"data":{"norad_id":58047,"intl_designator":"2023-156V","name":"STARLINK-30529","alt_names":[],"object_type":"PAYLOAD","status":"ACTIVE","operator":null,"country":"US","launch_date":"2023-10-09","launch_site_code":"AFWTR","launch_vehicle":null,"mission":null,"orbit_class":"UNKNOWN","rcs_meters":null,"size_class":null,"mass_kg":null,"dimensions":null,"purposes":["comms"],"wikipedia_slug":null,"has_3d_model":false,"image_url":null,"decayed_at":null,"tle_current":{"epoch":"2026-05-25T01:50:28.860288Z","epoch_age_seconds":75387,"freshness":"FRESH","line1":"1 58047U 23156V   26145.07672292 -.00001620  00000+0 -42557-4 0  9991","line2":"2 58047  53.1602 173.6661 0001406  75.9700 284.1457 15.30209978146671","mean_motion":15.30209978,"eccentricity":0.0001406,"inclination_deg":53.1602,"raan_deg":173.6661,"arg_perigee_deg":75.97,"mean_anomaly_deg":284.1457,"bstar":-4.2557e-5,"rev_number":14667,"period_min":94.104732076188,"perigee_km":474.2216999596,"apogee_km":476.14885418392,"semimajor_km":6853.3222770718,"source":"CELESTRAK","updated_at":"2026-05-25T13:38:18.498143Z"}}}